Погода в Сан-Рамоне

США     37°44′34″N   121°56′18″W
темп.,
°C
ветер,
м/с
пор.,
м/с
влажн.,
%
обл.,
%
осадки,
мм/ч
давл.,
гПа
погр.,
м
31 июля, сб
сб3123:00+15юз2279100 0.0 101558
02:00+15юз2281100 0.0 101457
05:00+14юз22875 0.0 101551
08:00+17зюз22675 0.0 1016238
11:00+25юз223982 0.0 1017495
14:00+31зюз33284 0.0 1015703
17:00+28з35340 0.0 1015502
20:00+19з23590 0.0 1016119
1 августа, вс
вс123:00+15зюз22790 0.0 101743
02:00+14юз21800 0.0 101728
05:00+13юз11840 0.0 101621
08:00+17зюз12620 0.0 1017186
11:00+28юз22270 0.0 1017561
14:00+31зюз44200 0.0 1016791
17:00+27з45324 0.0 1015526
20:00+17з23670 0.0 1017133
2 августа, пн
пн223:00+12зюз22920 0.0 101845
02:00+12юз11900 0.0 101828
05:00+11зюз11900 0.0 101820
08:00+16юз12690 0.0 1018181
11:00+26зюз21275 0.0 1018557
14:00+31зюз331631 0.0 1016885
17:00+30з34165 0.0 1015596
20:00+19зюз22415 0.0 101642
3 августа, вт
вт323:00+14юз22620 0.0 101625
02:00+13юз11680 0.0 101521
05:00+12юз21740 0.0 101520
08:00+17зюз12560 0.0 1016148
11:00+28зюз21220 0.0 1015459
14:00+31зюз33150 0.0 1014670
17:00+29зюз34170 0.0 1012493
20:00+18зюз22500 0.0 101358
4 августа, ср
ср423:00+12зюз22840 0.0 101447
02:00+11зюз22952 0.0 101452
05:00+10зюз22967 0.0 101550
08:00+14зюз23770 0.0 1016213
11:00+23зюз33410 0.0 1016490
14:00+25зюз45360 0.0 1015591
17:00+21зюз46500 0.0 1015511
20:00+14юз378110 0.0 1016381